This demonstration page uses our WeatherBlox Daily Observations layout. Learn more.

Left ArrowRight Arrow

Hourly Observations for July 1, 2019

Temp ( °F °C ) Dew Point ( °F °C ) Humidity (%) Winds ( mph kmh ) Pressure ( in mb ) Visibility ( mi km ) Precip ( " mm )
12:53 am 00:53 Clear 73 22.8 67 19.4 81 81 WSW 3 6 30.00 1016 10 16 N/A
1:53 am 01:53 Clear 70 21.1 68 20 93 93 N N/A 29.99 1016 10 16 N/A
2:53 am 02:53 Clear 70 21.1 68 20 93 93 N N/A 29.98 1015 10 16 N/A
3:53 am 03:53 Clear 69 20.6 68 20 96 96 N N/A 29.98 1015 10 16 N/A
4:53 am 04:53 Clear 68 20 67 19.4 96 96 WNW 3 6 29.98 1015 9 14 N/A
5:53 am 05:53 Clear with Mist and Fog 67 19.4 67 19.4 100 100 N N/A 30.00 1016 5 8 N/A
6:53 am 06:53 Sunny 70 21.1 68 20 93 93 N N/A 30.01 1016 8 13 N/A
7:53 am 07:53 Sunny 72 22.2 69 20.6 91 91 W 5 7 30.03 1017 9 14 N/A
8:53 am 08:53 Sunny 75 23.9 70 21.1 84 84 N N/A 30.04 1017 10 16 N/A
9:53 am 09:53 Sunny 79 26.1 70 21.1 74 74 VRB 6 9 30.04 1017 10 16 N/A
10:53 am 10:53 Sunny 82 27.8 70 21.1 67 67 VRB 3 6 30.03 1017 10 16 N/A
11:53 am 11:53 Sunny 84 28.9 69 20.6 61 61 VRB 5 7 30.01 1016 10 16 N/A
12:53 pm 12:53 Sunny 86 30 68 20 55 55 VRB 6 9 30.01 1016 10 16 N/A
1:53 pm 13:53 Mostly Sunny 87 30.6 68 20 53 53 VRB 7 11 30.00 1016 10 16 N/A
2:53 pm 14:53 Partly Cloudy 88 31.1 69 20.6 54 54 WSW 10 17 29.99 1016 10 16 N/A
3:53 pm 15:53 Partly Cloudy 88 31.1 68 20 52 52 VRB 6 9 29.99 1016 10 16 N/A
4:53 pm 16:53 Mostly Cloudy 88 31.1 69 20.6 54 54 N N/A 29.97 1015 10 16 N/A
5:53 pm 17:53 Sunny 88 31.1 67 19.4 50 50 NE 3 6 29.96 1014 10 16 N/A
6:53 pm 18:53 Sunny 88 31.1 71 21.7 57 57 N N/A 29.94 1014 10 16 N/A
7:53 pm 19:53 Sunny 87 30.6 68 20 53 53 W 6 9 29.94 1014 10 16 N/A
8:53 pm 20:53 Sunny 77 25 72 22.2 85 85 N N/A 29.94 1014 10 16 N/A
9:53 pm 21:53 Clear 75 23.9 71 21.7 88 88 N N/A 29.95 1014 10 16 N/A
10:53 pm 22:53 Clear 75 23.9 71 21.7 88 88 N N/A 29.96 1015 10 16 N/A
11:53 pm 23:53 Partly Cloudy 78 25.6 72 22.2 82 82 W 3 6 29.98 1015 10 16 N/A

Powered by AerisWeather